StationID,Date,MaxTemp,MinTemp,Precipitation,Snowfall,SnowDepth
"USC00506777","1970-03-19",42.98,,0.00,0.00,152.00
"USC00506777","1970-03-20",39.02,26.06,0.00,0.00,127.00
"USC00506777","1970-03-21",44.06,26.96,0.00,0.00,127.00
"USC00506777","1970-03-22",42.08,26.06,0.00,0.00,102.00
"USC00506777","1970-03-23",42.98,14.00,0.00,0.00,102.00
"USC00506777","1970-03-24",42.98,19.04,0.00,0.00,102.00
"USC00506777","1970-03-25",42.98,24.08,0.00,0.00,102.00
"USC00506777","1970-03-26",46.94,33.98,0.00,0.00,76.00
"USC00506777","1970-03-27",44.96,26.96,0.00,0.00,51.00
"USC00506777","1970-03-28",48.02,33.08,0.00,0.00,25.00
"USC00506777","1970-03-29",41.00,24.08,0.00,0.00,25.00
"USC00506777","1970-03-30",51.98,33.08,0.00,0.00,0.00
"USC00506777","1970-03-31",51.98,28.94,0.00,0.00,0.00
"USC00506777","1970-04-01",35.96,21.92,0.00,0.00,0.00
"USC00506777","1970-04-02",33.08,15.98,0.00,0.00,0.00
"USC00506777","1970-04-03",42.98,19.04,5.00,5.00,0.00
"USC00506777","1970-04-04",37.94,21.02,0.00,0.00,0.00
"USC00506777","1970-04-05",39.02,12.02,0.00,0.00,0.00
"USC00506777","1970-04-06",39.92,15.98,0.00,0.00,0.00
"USC00506777","1970-04-07",48.02,10.04,0.00,0.00,0.00
"USC00506777","1970-04-08",37.94,10.04,0.00,0.00,0.00
"USC00506777","1970-04-09",39.92,10.04,8.00,38.00,25.00
"USC00506777","1970-04-10",42.08,8.96,0.00,0.00,0.00
"USC00506777","1970-04-11",37.04,17.96,0.00,0.00,0.00
"USC00506777","1970-04-12",41.00,8.06,0.00,0.00,0.00
"USC00506777","1970-04-13",48.02,30.92,0.00,0.00,0.00
"USC00506777","1970-04-14",55.04,24.98,0.00,0.00,0.00
"USC00506777","1970-04-15",51.08,28.04,0.00,0.00,0.00
"USC00506777","1970-04-16",48.02,33.98,0.00,0.00,0.00
"USC00506777","1970-04-17",50.00,26.96,0.00,0.00,0.00
"USC00506777","1970-04-18",46.94,26.06,0.00,0.00,0.00
"USC00506777","1970-04-19",50.00,24.98,0.00,0.00,0.00
"USC00506777","1970-04-20",44.06,28.04,0.00,0.00,0.00
"USC00506777","1970-04-21",46.94,28.94,0.00,0.00,0.00
"USC00506777","1970-04-22",44.06,26.96,0.00,0.00,0.00
"USC00506777","1970-04-23",48.02,19.94,0.00,0.00,0.00
"USC00506777","1970-04-24",48.92,24.08,0.00,0.00,0.00
"USC00506777","1970-04-25",46.94,15.98,0.00,0.00,0.00
"USC00506777","1970-04-26",50.00,10.04,0.00,0.00,0.00
"USC00506777","1970-04-27",44.96,33.08,0.00,0.00,0.00
"USC00506777","1970-04-28",51.98,30.02,0.00,0.00,0.00
"USC00506777","1970-04-29",,23.00,0.00,0.00,0.00
"USC00506777","1970-04-30",48.92,26.96,0.00,0.00,0.00
"USC00506777","1970-05-01",48.92,21.92,0.00,0.00,0.00
"USC00506777","1970-05-02",48.92,26.96,0.00,0.00,0.00
"USC00506777","1970-05-03",51.08,24.08,0.00,0.00,0.00
"USC00506777","1970-05-04",48.02,15.98,0.00,0.00,0.00
"USC00506777","1970-05-05",51.08,30.02,0.00,0.00,0.00
"USC00506777","1970-05-06",57.92,32.00,0.00,0.00,0.00
"USC00506777","1970-05-07",51.98,28.04,0.00,0.00,0.00
"USC00506777","1970-05-08",53.96,26.06,0.00,0.00,0.00
"USC00506777","1970-05-09",68.00,30.02,0.00,0.00,0.00
"USC00506777","1970-05-10",69.08,24.08,0.00,0.00,0.00
"USC00506777","1970-05-11",69.98,21.92,0.00,0.00,0.00
"USC00506777","1970-05-12",71.96,26.06,0.00,0.00,0.00
"USC00506777","1970-05-13",69.08,44.96,0.00,0.00,0.00
"USC00506777","1970-05-14",53.96,37.04,13.00,0.00,0.00
"USC00506777","1970-05-15",57.02,35.96,0.00,0.00,0.00
"USC00506777","1970-05-16",59.00,21.92,0.00,0.00,0.00
"USC00506777","1970-05-17",59.00,26.06,0.00,0.00,0.00
"USC00506777","1970-05-18",60.08,26.96,0.00,0.00,0.00
"USC00506777","1970-05-19",62.06,28.04,0.00,0.00,0.00
"USC00506777","1970-05-20",62.96,30.92,0.00,0.00,0.00
"USC00506777","1970-05-21",64.94,33.98,0.00,0.00,0.00
"USC00506777","1970-05-22",55.04,33.98,0.00,0.00,0.00
"USC00506777","1970-05-23",57.02,37.94,0.00,0.00,0.00
"USC00506777","1970-05-24",57.02,17.96,0.00,0.00,0.00
"USC00506777","1970-05-25",60.98,35.06,0.00,0.00,0.00
"USC00506777","1970-05-26",64.94,28.04,3.00,0.00,0.00
"USC00506777","1970-05-27",68.00,35.06,30.00,0.00,0.00
"USC00506777","1970-05-28",64.94,35.96,79.00,0.00,0.00
"USC00506777","1970-05-29",64.94,37.94,0.00,0.00,0.00
"USC00506777","1970-05-30",62.96,37.04,0.00,0.00,0.00
"USC00506777","1970-05-31",64.94,24.98,0.00,0.00,0.00
"USC00506777","1970-06-01",60.98,33.98,0.00,0.00,0.00
"USC00506777","1970-06-02",66.92,35.96,0.00,0.00,0.00
"USC00506777","1970-06-03",68.00,41.00,0.00,0.00,0.00
"USC00506777","1970-06-04",64.04,53.06,71.00,0.00,0.00
"USC00506777","1970-06-05",66.02,39.02,0.00,0.00,0.00
"USC00506777","1970-06-06",75.92,41.00,0.00,0.00,0.00
"USC00506777","1970-06-07",75.02,30.02,0.00,0.00,0.00
"USC00506777","1970-06-08",60.08,39.92,53.00,0.00,0.00
"USC00506777","1970-06-09",60.98,35.96,23.00,0.00,0.00
"USC00506777","1970-06-10",64.04,37.04,0.00,0.00,0.00
"USC00506777","1970-06-11",60.08,41.00,0.00,0.00,0.00
"USC00506777","1970-06-12",59.00,41.00,0.00,0.00,0.00
"USC00506777","1970-06-13",62.06,39.92,0.00,0.00,0.00
"USC00506777","1970-06-14",64.04,37.94,0.00,0.00,0.00
"USC00506777","1970-06-15",62.96,41.00,0.00,0.00,0.00
"USC00506777","1970-06-16",57.92,26.06,5.00,0.00,0.00
"USC00506777","1970-06-17",69.08,41.00,0.00,0.00,0.00
"USC00506777","1970-06-18",60.08,44.96,0.00,0.00,0.00
"USC00506777","1970-06-19",62.06,39.92,0.00,0.00,0.00
"USC00506777","1970-06-20",69.08,37.04,0.00,0.00,0.00
"USC00506777","1970-06-21",68.00,35.96,3.00,0.00,0.00
"USC00506777","1970-06-22",66.02,37.94,0.00,0.00,0.00
"USC00506777","1970-06-23",66.92,42.08,8.00,0.00,0.00
"USC00506777","1970-06-24",66.02,46.04,0.00,0.00,0.00
"USC00506777","1970-06-25",64.04,44.06,5.00,0.00,0.00
"USC00506777","1970-06-26",55.94,42.98,3.00,0.00,0.00
"USC00506777","1970-06-27",64.04,39.92,10.00,0.00,0.00
"USC00506777","1970-06-28",66.92,39.92,0.00,0.00,0.00
"USC00506777","1970-06-29",60.98,39.92,89.00,0.00,0.00
"USC00506777","1970-06-30",66.92,37.04,0.00,0.00,0.00
"USC00506777","1970-07-01",75.02,32.00,0.00,0.00,0.00
"USC00506777","1970-07-02",69.98,51.08,0.00,0.00,0.00
"USC00506777","1970-07-03",68.00,35.96,0.00,0.00,0.00
"USC00506777","1970-07-04",64.94,33.98,25.00,0.00,0.00
"USC00506777","1970-07-05",64.94,35.06,0.00,0.00,0.00
"USC00506777","1970-07-06",62.06,41.00,5.00,0.00,0.00
"USC00506777","1970-07-07",53.96,46.04,84.00,0.00,0.00
"USC00506777","1970-07-08",62.06,41.00,3.00,0.00,0.00
"USC00506777","1970-07-09",68.00,39.02,0.00,0.00,0.00
"USC00506777","1970-07-10",69.08,42.98,0.00,0.00,0.00
"USC00506777","1970-07-11",60.98,46.04,0.00,0.00,0.00
"USC00506777","1970-07-12",62.96,46.04,0.00,0.00,0.00
"USC00506777","1970-07-13",57.92,42.98,0.00,0.00,0.00
"USC00506777","1970-07-14",62.96,44.06,13.00,0.00,0.00
"USC00506777","1970-07-15",62.06,42.08,0.00,0.00,0.00
"USC00506777","1970-07-16",66.02,37.04,3.00,0.00,0.00
"USC00506777","1970-07-17",66.02,32.00,8.00,0.00,0.00
"USC00506777","1970-07-18",62.06,42.08,137.00,0.00,0.00
"USC00506777","1970-07-19",60.08,35.06,0.00,0.00,0.00
"USC00506777","1970-07-20",66.02,42.08,0.00,0.00,0.00
"USC00506777","1970-07-21",69.08,42.98,0.00,0.00,0.00
"USC00506777","1970-07-22",57.92,42.08,76.00,0.00,0.00
"USC00506777","1970-07-23",62.96,44.96,28.00,0.00,0.00
"USC00506777","1970-07-24",73.04,46.94,0.00,0.00,0.00
"USC00506777","1970-07-25",80.96,37.04,0.00,0.00,0.00
"USC00506777","1970-07-26",82.94,51.08,0.00,0.00,0.00
"USC00506777","1970-07-27",82.04,41.00,0.00,0.00,0.00
"USC00506777","1970-07-28",78.98,51.08,0.00,0.00,0.00
"USC00506777","1970-07-29",75.02,46.04,5.00,0.00,0.00
"USC00506777","1970-07-30",59.00,44.96,38.00,0.00,0.00
"USC00506777","1970-07-31",57.02,46.04,20.00,0.00,0.00
"USC00506777","1970-08-01",59.00,44.96,18.00,0.00,0.00
"USC00506777","1970-08-02",59.00,42.08,0.00,0.00,0.00
"USC00506777","1970-08-03",57.02,42.08,15.00,0.00,0.00
"USC00506777","1970-08-04",68.00,39.92,0.00,0.00,0.00
"USC00506777","1970-08-05",66.92,37.94,0.00,0.00,0.00
"USC00506777","1970-08-06",66.02,46.94,3.00,0.00,0.00
"USC00506777","1970-08-07",60.08,46.04,20.00,0.00,0.00
"USC00506777","1970-08-08",62.96,32.00,0.00,0.00,0.00
"USC00506777","1970-08-09",66.02,39.92,0.00,0.00,0.00
"USC00506777","1970-08-10",66.02,41.00,0.00,0.00,0.00
"USC00506777","1970-08-11",71.06,39.02,3.00,0.00,0.00
"USC00506777","1970-08-12",71.96,37.04,0.00,0.00,0.00
"USC00506777","1970-08-13",68.00,35.96,0.00,0.00,0.00
"USC00506777","1970-08-14",59.00,42.08,10.00,0.00,0.00
"USC00506777","1970-08-15",51.08,42.08,107.00,0.00,0.00
"USC00506777","1970-08-16",57.92,44.06,46.00,0.00,0.00
"USC00506777","1970-08-17",60.08,39.02,0.00,0.00,0.00
"USC00506777","1970-08-18",64.04,44.96,8.00,0.00,0.00
"USC00506777","1970-08-19",62.06,42.98,18.00,0.00,0.00
"USC00506777","1970-08-20",57.92,35.96,0.00,0.00,0.00
"USC00506777","1970-08-21",62.06,39.02,3.00,0.00,0.00
"USC00506777","1970-08-22",57.02,44.06,10.00,0.00,0.00
"USC00506777","1970-08-23",57.02,39.02,0.00,0.00,0.00
"USC00506777","1970-08-24",62.06,32.00,0.00,0.00,0.00
"USC00506777","1970-08-25",66.02,35.06,0.00,0.00,0.00
"USC00506777","1970-08-26",71.96,23.00,0.00,0.00,0.00
"USC00506777","1970-08-27",69.98,26.06,0.00,0.00,0.00
"USC00506777","1970-08-28",62.06,35.96,0.00,0.00,0.00
"USC00506777","1970-08-29",59.00,44.06,10.00,0.00,0.00
"USC00506777","1970-08-30",59.00,44.06,10.00,0.00,0.00
"USC00506777","1970-08-31",62.96,39.92,5.00,0.00,0.00
"USC00506777","1970-09-01",64.04,26.06,0.00,0.00,0.00
"USC00506777","1970-09-02",60.98,30.02,13.00,0.00,0.00
"USC00506777","1970-09-03",60.08,28.94,0.00,0.00,0.00
"USC00506777","1970-09-04",55.94,44.06,5.00,0.00,0.00
"USC00506777","1970-09-05",55.04,41.00,33.00,0.00,0.00
"USC00506777","1970-09-06",53.96,39.92,10.00,0.00,0.00
"USC00506777","1970-09-07",50.00,32.00,0.00,0.00,0.00
"USC00506777","1970-09-08",44.06,26.06,41.00,51.00,0.00
"USC00506777","1970-09-09",46.04,15.98,0.00,0.00,0.00
"USC00506777","1970-09-10",53.96,14.00,0.00,0.00,0.00
"USC00506777","1970-09-11",51.98,28.94,15.00,0.00,0.00
"USC00506777","1970-09-12",51.98,39.02,8.00,0.00,0.00
"USC00506777","1970-09-13",62.96,39.02,0.00,0.00,0.00
"USC00506777","1970-09-14",57.92,39.02,0.00,0.00,0.00
"USC00506777","1970-09-15",62.96,39.92,0.00,0.00,0.00
"USC00506777","1970-09-16",57.92,42.08,0.00,0.00,0.00
"USC00506777","1970-09-17",55.04,39.92,20.00,0.00,0.00
"USC00506777","1970-09-18",50.00,37.94,51.00,0.00,0.00
"USC00506777","1970-09-19",39.92,19.94,0.00,0.00,0.00
"USC00506777","1970-09-20",33.98,28.04,170.00,279.00,279.00
"USC00506777","1970-09-21",39.02,23.00,0.00,0.00,178.00
"USC00506777","1970-09-22",41.00,17.96,0.00,0.00,102.00
"USC00506777","1970-09-23",39.92,1.94,0.00,0.00,76.00
"USC00506777","1970-09-24",35.96,8.96,0.00,0.00,76.00
"USC00506777","1970-09-25",39.02,26.06,15.00,0.00,76.00
"USC00506777","1970-09-26",51.08,35.06,0.00,0.00,25.00
"USC00506777","1970-09-27",39.92,28.04,71.00,0.00,0.00
"USC00506777","1970-09-28",46.94,35.06,23.00,0.00,0.00
"USC00506777","1970-09-29",48.02,30.02,0.00,0.00,0.00
"USC00506777","1970-09-30",46.04,35.96,18.00,0.00,0.00
"USC00506777","1970-10-01",48.02,30.92,13.00,0.00,0.00
"USC00506777","1970-10-02",44.06,35.96,10.00,0.00,0.00
"USC00506777","1970-10-03",39.02,26.96,0.00,0.00,0.00
"USC00506777","1970-10-04",33.98,12.02,0.00,0.00,0.00
"USC00506777","1970-10-05",35.96,5.00,0.00,0.00,0.00
"USC00506777","1970-10-06",35.96,30.02,53.00,51.00,51.00
"USC00506777","1970-10-07",39.92,30.02,0.00,0.00,25.00
"USC00506777","1970-10-08",42.08,30.02,0.00,0.00,25.00
"USC00506777","1970-10-09",33.08,23.00,71.00,76.00,76.00
"USC00506777","1970-10-10",41.00,30.92,36.00,38.00,76.00
"USC00506777","1970-10-11",46.94,33.08,0.00,0.00,51.00
"USC00506777","1970-10-12",41.00,28.04,0.00,0.00,51.00
"USC00506777","1970-10-13",46.04,37.04,0.00,0.00,25.00
"USC00506777","1970-10-14",37.94,26.06,28.00,10.00,25.00
"USC00506777","1970-10-15",35.06,24.98,0.00,0.00,0.00
"USC00506777","1970-10-16",28.94,19.94,0.00,0.00,0.00
"USC00506777","1970-10-17",33.08,21.92,79.00,102.00,102.00
"USC00506777","1970-10-18",28.04,15.98,30.00,38.00,127.00
"USC00506777","1970-10-19",21.92,5.00,5.00,5.00,76.00
"USC00506777","1970-10-20",17.06,-7.06,0.00,0.00,76.00
"USC00506777","1970-10-21",12.92,-14.98,0.00,0.00,76.00
"USC00506777","1970-10-22",12.92,-0.04,0.00,0.00,76.00
"USC00506777","1970-10-23",15.98,1.94,5.00,3.00,76.00
"USC00506777","1970-10-24",15.08,-2.92,0.00,0.00,76.00
"USC00506777","1970-10-25",17.06,5.00,0.00,0.00,76.00
"USC00506777","1970-10-26",10.04,-11.92,0.00,0.00,76.00
"USC00506777","1970-10-27",19.04,3.92,0.00,0.00,76.00
"USC00506777","1970-10-28",37.04,-2.02,0.00,0.00,51.00
"USC00506777","1970-10-29",35.06,21.02,30.00,38.00,51.00
"USC00506777","1970-10-30",37.94,24.98,0.00,0.00,51.00
"USC00506777","1970-10-31",48.92,24.98,0.00,0.00,25.00
"USC00506777","1970-11-01",46.04,28.94,0.00,0.00,51.00
"USC00506777","1970-11-02",37.94,23.00,18.00,30.00,51.00
"USC00506777","1970-11-03",33.98,30.02,0.00,0.00,25.00
"USC00506777","1970-11-04",33.08,24.98,0.00,0.00,25.00
"USC00506777","1970-11-05",28.94,24.08,0.00,0.00,25.00
"USC00506777","1970-11-06",30.02,24.98,0.00,0.00,25.00
"USC00506777","1970-11-07",30.92,26.06,0.00,0.00,25.00
"USC00506777","1970-11-08",30.02,23.00,0.00,0.00,25.00
"USC00506777","1970-11-09",26.96,19.04,0.00,0.00,25.00
"USC00506777","1970-11-10",21.02,10.94,0.00,0.00,25.00
"USC00506777","1970-11-11",19.04,6.98,0.00,0.00,25.00
"USC00506777","1970-11-12",17.06,3.02,0.00,0.00,25.00
"USC00506777","1970-11-13",17.96,3.02,0.00,0.00,25.00
"USC00506777","1970-11-14",15.98,1.04,0.00,0.00,25.00
"USC00506777","1970-11-15",17.06,10.04,5.00,0.00,25.00
"USC00506777","1970-11-16",15.08,1.94,0.00,3.00,25.00
"USC00506777","1970-11-17",17.96,-4.00,13.00,15.00,51.00
"USC00506777","1970-11-18",10.94,-5.98,0.00,0.00,51.00
"USC00506777","1970-11-19",3.92,-18.04,0.00,0.00,51.00
"USC00506777","1970-11-20",3.02,-20.92,0.00,0.00,51.00
"USC00506777","1970-11-21",12.92,1.94,58.00,64.00,127.00
"USC00506777","1970-11-22",12.02,-18.04,5.00,5.00,127.00
"USC00506777","1970-11-23",-0.04,-25.96,0.00,0.00,127.00
"USC00506777","1970-11-24",-7.96,-29.92,0.00,0.00,127.00
"USC00506777","1970-11-25",6.08,-9.94,38.00,76.00,203.00
"USC00506777","1970-11-26",6.08,-18.04,0.00,0.00,203.00
"USC00506777","1970-11-27",3.92,-20.02,0.00,0.00,203.00
"USC00506777","1970-11-28",8.96,-5.08,0.00,0.00,203.00
"USC00506777","1970-11-29",6.08,-0.04,0.00,0.00,203.00
"USC00506777","1970-11-30",1.04,-5.08,0.00,0.00,203.00
"USC00506777","1970-12-01",-5.08,-34.96,0.00,0.00,203.00
"USC00506777","1970-12-02",-14.98,-40.00,0.00,0.00,178.00
"USC00506777","1970-12-03",-29.02,-47.92,0.00,0.00,152.00
"USC00506777","1970-12-04",-34.96,-52.06,0.00,0.00,152.00
"USC00506777","1970-12-05",-29.92,-50.08,0.00,0.00,152.00
"USC00506777","1970-12-06",-27.04,-50.08,0.00,0.00,127.00
"USC00506777","1970-12-07",-23.98,-38.92,0.00,0.00,127.00
"USC00506777","1970-12-08",-11.92,-32.98,0.00,0.00,127.00
"USC00506777","1970-12-09",-9.04,-32.98,0.00,3.00,127.00
"USC00506777","1970-12-10",-2.92,-20.02,0.00,0.00,127.00
"USC00506777","1970-12-11",-0.04,-25.96,0.00,0.00,127.00
"USC00506777","1970-12-12",5.00,-11.02,0.00,0.00,127.00
"USC00506777","1970-12-13",10.94,-7.06,0.00,0.00,127.00
"USC00506777","1970-12-14",24.98,-2.92,0.00,0.00,127.00
"USC00506777","1970-12-15",24.08,-11.02,8.00,5.00,127.00
"USC00506777","1970-12-16",6.08,-16.06,0.00,0.00,127.00
"USC00506777","1970-12-17",-0.94,-18.94,0.00,0.00,127.00
"USC00506777","1970-12-18",17.06,-5.08,3.00,3.00,127.00
"USC00506777","1970-12-19",10.04,-4.00,0.00,0.00,127.00
"USC00506777","1970-12-20",10.04,-0.04,0.00,0.00,127.00
"USC00506777","1970-12-21",24.08,1.94,25.00,43.00,178.00
"USC00506777","1970-12-22",21.92,3.92,0.00,0.00,152.00
"USC00506777","1970-12-23",35.96,3.02,0.00,0.00,152.00
"USC00506777","1970-12-24",39.92,1.04,43.00,0.00,152.00
"USC00506777","1970-12-25",28.94,1.94,0.00,0.00,152.00
"USC00506777","1970-12-26",28.04,3.92,69.00,79.00,203.00
"USC00506777","1970-12-27",5.00,-31.00,3.00,3.00,203.00
"USC00506777","1970-12-28",-16.06,-36.04,0.00,0.00,203.00
"USC00506777","1970-12-29",-20.92,-38.92,0.00,0.00,203.00
"USC00506777","1970-12-30",-18.94,-34.06,0.00,0.00,203.00
"USC00506777","1970-12-31",-27.04,-43.96,0.00,0.00,203.00
"USC00506777","1971-01-01",-23.08,-41.98,0.00,0.00,203.00
"USC00506777","1971-01-02",-16.06,-36.04,0.00,0.00,203.00
"USC00506777","1971-01-03",30.02,-16.96,0.00,0.00,178.00
"USC00506777","1971-01-04",37.94,5.00,0.00,0.00,152.00
"USC00506777","1971-01-05",42.98,33.08,0.00,0.00,152.00
"USC00506777","1971-01-06",44.96,17.06,0.00,0.00,152.00
"USC00506777","1971-01-07",19.94,-14.98,0.00,0.00,152.00
"USC00506777","1971-01-08",3.02,-22.00,0.00,0.00,152.00
"USC00506777","1971-01-09",-4.00,-34.96,0.00,0.00,152.00
"USC00506777","1971-01-10",-20.92,-40.00,0.00,0.00,152.00
"USC00506777","1971-01-11",-16.96,-29.92,0.00,0.00,152.00
"USC00506777","1971-01-12",-18.04,-34.96,0.00,0.00,152.00
"USC00506777","1971-01-13",-9.94,-36.94,0.00,0.00,152.00
"USC00506777","1971-01-14",-0.94,-32.08,0.00,0.00,152.00
"USC00506777","1971-01-15",-5.08,-25.06,0.00,0.00,152.00
"USC00506777","1971-01-16",-14.08,-43.96,0.00,0.00,152.00
"USC00506777","1971-01-17",-34.06,-52.06,0.00,0.00,152.00
"USC00506777","1971-01-18",-41.08,-56.92,0.00,0.00,152.00
"USC00506777","1971-01-19",-32.08,-52.06,0.00,0.00,152.00
"USC00506777","1971-01-20",-23.08,-43.96,3.00,3.00,152.00
"USC00506777","1971-01-21",-14.08,-34.96,10.00,10.00,178.00
"USC00506777","1971-01-22",-11.92,-36.94,8.00,5.00,178.00
"USC00506777","1971-01-23",-11.02,-27.94,0.00,0.00,178.00
"USC00506777","1971-01-24",-18.94,-49.00,0.00,0.00,178.00
"USC00506777","1971-01-25",-16.06,-52.06,20.00,15.00,203.00
"USC00506777","1971-01-26",-16.06,-45.04,5.00,5.00,203.00
"USC00506777","1971-01-27",-18.94,-45.04,0.00,0.00,203.00
"USC00506777","1971-01-28",-20.92,-47.02,0.00,0.00,203.00
"USC00506777","1971-01-29",-20.92,-41.08,0.00,0.00,203.00
"USC00506777","1971-01-30",-20.02,-45.04,0.00,0.00,203.00
"USC00506777","1971-01-31",-9.04,-32.08,0.00,0.00,203.00
"USC00506777","1971-02-01",-2.02,-18.04,0.00,0.00,203.00
"USC00506777","1971-02-02",3.92,-25.06,0.00,0.00,203.00
"USC00506777","1971-02-03",-2.02,-34.06,0.00,0.00,203.00
"USC00506777","1971-02-04",-7.06,-34.96,0.00,0.00,203.00
"USC00506777","1971-02-05",21.92,-14.08,3.00,3.00,203.00
"USC00506777","1971-02-06",37.94,17.96,25.00,30.00,229.00
"USC00506777","1971-02-07",42.08,32.00,0.00,0.00,203.00
"USC00506777","1971-02-08",37.04,17.96,0.00,0.00,203.00
"USC00506777","1971-02-09",39.92,17.96,0.00,0.00,203.00
"USC00506777","1971-02-10",28.94,15.08,0.00,0.00,203.00
"USC00506777","1971-02-11",19.94,-0.94,0.00,0.00,203.00
"USC00506777","1971-02-12",21.92,6.08,15.00,13.00,229.00
"USC00506777","1971-02-13",19.94,12.02,5.00,13.00,254.00
"USC00506777","1971-02-14",19.94,12.02,0.00,0.00,254.00
"USC00506777","1971-02-15",15.98,8.06,30.00,51.00,305.00
"USC00506777","1971-02-16",21.02,1.94,0.00,0.00,305.00
"USC00506777","1971-02-17",37.94,14.00,0.00,0.00,305.00
"USC00506777","1971-02-18",35.06,5.00,0.00,0.00,279.00
"USC00506777","1971-02-19",33.08,10.94,0.00,0.00,279.00
"USC00506777","1971-02-20",42.08,14.00,0.00,0.00,279.00
"USC00506777","1971-02-21",39.02,24.08,0.00,0.00,254.00
"USC00506777","1971-02-22",37.94,28.94,0.00,0.00,254.00
"USC00506777","1971-02-23",30.92,5.00,0.00,0.00,254.00
"USC00506777","1971-02-24",8.96,-9.94,0.00,0.00,254.00
"USC00506777","1971-02-25",-4.00,-36.04,0.00,0.00,254.00
"USC00506777","1971-02-26",-4.00,-38.92,0.00,0.00,254.00
"USC00506777","1971-02-27",-5.08,-34.96,0.00,0.00,254.00
"USC00506777","1971-02-28",23.00,-11.92,3.00,3.00,254.00
"USC00506777","1971-03-01",44.96,-7.96,0.00,0.00,254.00
"USC00506777","1971-03-02",35.96,10.04,5.00,5.00,254.00
"USC00506777","1971-03-03",10.04,-5.08,5.00,5.00,254.00
"USC00506777","1971-03-04",-0.94,-16.06,0.00,0.00,254.00
"USC00506777","1971-03-05",-9.94,-18.94,0.00,0.00,254.00
"USC00506777","1971-03-06",-5.98,-29.02,0.00,0.00,254.00
"USC00506777","1971-03-07",-7.06,-32.08,0.00,0.00,254.00
"USC00506777","1971-03-08",10.04,-29.02,0.00,0.00,254.00
"USC00506777","1971-03-09",24.98,-25.06,0.00,0.00,254.00
"USC00506777","1971-03-10",17.96,-0.04,0.00,0.00,254.00
"USC00506777","1971-03-11",28.04,3.02,0.00,0.00,254.00
"USC00506777","1971-03-12",21.92,5.00,0.00,0.00,229.00
"USC00506777","1971-03-13",30.02,-5.08,0.00,0.00,229.00
"USC00506777","1971-03-14",24.98,3.92,0.00,0.00,229.00
"USC00506777","1971-03-15",32.00,-5.08,0.00,0.00,229.00
"USC00506777","1971-03-16",37.04,-4.00,0.00,0.00,203.00
"USC00506777","1971-03-17",44.06,17.96,0.00,0.00,178.00
"USC00506777","1971-03-18",37.04,19.94,33.00,102.00,254.00
"USC00506777","1971-03-19",39.92,1.04,0.00,0.00,254.00
"USC00506777","1971-03-20",35.06,1.94,0.00,0.00,229.00
"USC00506777","1971-03-21",33.98,-9.94,0.00,0.00,229.00
"USC00506777","1971-03-22",26.96,-14.98,0.00,0.00,203.00
"USC00506777","1971-03-23",33.08,-18.04,0.00,0.00,178.00
"USC00506777","1971-03-24",30.02,3.02,0.00,0.00,178.00
"USC00506777","1971-03-25",21.92,8.06,8.00,5.00,178.00
"USC00506777","1971-03-26",24.98,6.08,0.00,0.00,152.00
"USC00506777","1971-03-27",33.08,8.06,0.00,0.00,152.00
"USC00506777","1971-03-28",35.06,1.04,0.00,0.00,152.00
"USC00506777","1971-03-29",35.96,-5.08,0.00,0.00,127.00
"USC00506777","1971-03-30",33.98,-2.92,0.00,0.00,127.00
"USC00506777","1971-03-31",35.06,-7.96,0.00,0.00,127.00
"USC00506777","1971-04-01",33.08,-7.96,0.00,0.00,152.00
"USC00506777","1971-04-02",33.08,-0.04,0.00,0.00,152.00
"USC00506777","1971-04-03",46.04,12.92,0.00,0.00,152.00
"USC00506777","1971-04-04",44.06,12.02,0.00,0.00,152.00
"USC00506777","1971-04-05",44.06,24.98,0.00,0.00,152.00
"USC00506777","1971-04-06",42.98,15.08,0.00,0.00,152.00
"USC00506777","1971-04-07",42.08,17.96,0.00,0.00,127.00
"USC00506777","1971-04-08",35.96,10.94,0.00,0.00,102.00
"USC00506777","1971-04-09",32.00,1.94,0.00,0.00,102.00
"USC00506777","1971-04-10",28.04,6.98,5.00,8.00,102.00
"USC00506777","1971-04-11",37.94,-4.00,0.00,0.00,102.00
"USC00506777","1971-04-12",39.92,37.04,0.00,0.00,102.00
"USC00506777","1971-04-13",44.06,26.06,5.00,5.00,102.00
"USC00506777","1971-04-14",42.08,26.06,0.00,0.00,76.00
"USC00506777","1971-04-15",37.94,21.02,0.00,0.00,76.00
"USC00506777","1971-04-16",46.04,6.08,0.00,0.00,76.00
"USC00506777","1971-04-17",44.06,21.92,0.00,0.00,51.00
"USC00506777","1971-04-18",44.06,26.06,0.00,0.00,51.00
"USC00506777","1971-04-19",42.98,1.94,0.00,0.00,51.00
"USC00506777","1971-04-20",41.00,17.96,0.00,0.00,25.00
"USC00506777","1971-04-21",39.92,15.08,0.00,0.00,25.00
"USC00506777","1971-04-22",44.96,21.92,0.00,0.00,25.00
"USC00506777","1971-04-23",48.92,19.04,0.00,0.00,0.00
"USC00506777","1971-04-24",48.92,10.04,0.00,0.00,0.00
"USC00506777","1971-04-25",48.92,30.92,0.00,0.00,0.00
"USC00506777","1971-04-26",51.08,28.94,0.00,0.00,0.00
"USC00506777","1971-04-27",46.94,30.02,23.00,13.00,0.00
"USC00506777","1971-04-28",44.96,17.96,0.00,0.00,0.00
"USC00506777","1971-04-29",44.06,26.96,0.00,0.00,0.00
"USC00506777","1971-04-30",48.02,24.08,0.00,0.00,0.00
"USC00506777","1971-05-01",44.96,12.92,0.00,0.00,0.00
"USC00506777","1971-05-02",48.02,23.00,0.00,0.00,0.00
"USC00506777","1971-05-03",42.08,24.98,0.00,0.00,0.00
"USC00506777","1971-05-04",46.94,19.04,0.00,0.00,0.00
"USC00506777","1971-05-05",46.94,15.98,0.00,0.00,0.00
"USC00506777","1971-05-06",53.96,30.02,0.00,0.00,0.00
"USC00506777","1971-05-07",48.02,28.94,0.00,0.00,0.00
"USC00506777","1971-05-08",42.08,28.04,8.00,0.00,0.00
"USC00506777","1971-05-09",46.94,24.08,0.00,0.00,0.00
"USC00506777","1971-05-10",53.96,24.98,0.00,0.00,0.00
"USC00506777","1971-05-11",53.96,26.06,0.00,0.00,0.00
"USC00506777","1971-05-12",59.00,26.06,0.00,0.00,0.00
"USC00506777","1971-05-13",50.00,19.04,13.00,0.00,0.00
"USC00506777","1971-05-14",48.92,24.08,0.00,0.00,0.00
"USC00506777","1971-05-15",50.00,19.94,0.00,0.00,0.00
"USC00506777","1971-05-16",50.00,28.04,0.00,0.00,0.00
"USC00506777","1971-05-17",57.02,28.94,0.00,0.00,0.00
"USC00506777","1971-05-18",55.94,24.98,0.00,0.00,0.00